Weather History for KCKC - November, 2013

Change the Weather History Date:

Saturday, November 9, 2013

  Actual Average Record
Temperature  
Mean Temperature 32 °F -  
Max Temperature 33 °F 33 °F 68 °F (1999)
Min Temperature 30 °F 22 °F 12 °F (2014)
Degree Days  
Heating Degree Days 34    
Moisture  
Dew Point 28 °F    
Average Humidity 88    
Maximum Humidity 93    
Minimum Humidity 80    
Precipitation  
Precipitation 0.16 in - - ()
Sea Level Pressure  
Sea Level Pressure 29.65 in    
Wind  
Wind Speed 8 mph (NW)    
Max Wind Speed 15 mph    
Max Gust Speed 26 mph    
Visibility 4 miles    
Events Snow    
Averages and records for this station are not official NWS values.
T = Trace of Precipitation, MM = Missing Value Source: NWS Daily Summary

Daily Weather History Graph

Daily Weather History Graph

Search for Another Location

Airport or City:

Trip Planner

Search our weather history database for the weather conditions in past years. The results will help you decide how hot, cold, wet, or windy it might be!

Date:

Astronomy

Nov. 09, 2013 Rise Set
Actual Time 6:58 AM CST 4:31 PM CST
Civil Twilight 6:25 AM CST 5:04 PM CST
Nautical Twilight 5:48 AM CST 5:41 PM CST
Astronomical Twilight 5:12 AM CST 6:17 PM CST
Moon 12:31 PM CST (11/9) 11:08 PM CST (11/9)
Length of Visible Light 10h 39m
Length of Day
9h 32m
Waxing Crescent, 44% of the Moon is Illuminated
Nov 9
Waxing Crescent
Nov 9
First Quarter
Nov 17
Full
Nov 25
Last Quarter
Dec 2
New

Hourly Weather History & Observations

Time (CST) Temp. Windchill Dew Point Humidity Pressure Visibility Wind Dir Wind Speed Gust Speed Precip Events Conditions
12:13 AM 30.2 °F 20.2 °F 28.4 °F 93% 29.66 in 0.2 mi East 12.7 mph 18.4 mph 0.02 in Snow Light Snow
12:33 AM 30.2 °F 21.9 °F 28.4 °F 93% 29.65 in 0.5 mi East 9.2 mph 17.3 mph 0.04 in   Overcast
12:53 AM 30.2 °F 22.6 °F 28.4 °F 93% 29.63 in 0.5 mi East 8.1 mph - 0.05 in   Overcast
1:14 AM 30.2 °F 21.3 °F 28.4 °F 93% 29.62 in 0.2 mi East 10.4 mph - 0.01 in   Overcast
1:33 AM 30.2 °F 21.9 °F 28.4 °F 93% 29.61 in 0.8 mi East 9.2 mph 16.1 mph 0.02 in   Overcast
1:54 AM 30.2 °F 22.6 °F 28.4 °F 93% 29.60 in 0.2 mi ESE 8.1 mph - 0.03 in Snow Light Snow
2:13 AM 30.2 °F 25.4 °F 28.4 °F 93% 29.59 in 1.2 mi East 4.6 mph - 0.01 in   Overcast
2:33 AM 30.2 °F 23.4 °F 28.4 °F 93% 29.58 in 0.2 mi East 6.9 mph - 0.02 in   Overcast
2:54 AM 30.2 °F 25.4 °F 28.4 °F 93% 29.57 in 0.2 mi East 4.6 mph - 0.03 in   Overcast
3:13 AM 30.2 °F 24.3 °F 28.4 °F 93% 29.56 in 0.2 mi ESE 5.8 mph - 0.01 in   Overcast
3:34 AM 30.2 °F 25.4 °F 28.4 °F 93% 29.55 in 0.2 mi ESE 4.6 mph - 0.01 in   Overcast
3:53 AM 30.2 °F 25.4 °F 28.4 °F 93% 29.55 in 0.2 mi ESE 4.6 mph - 0.02 in   Overcast
4:13 AM 30.2 °F 26.7 °F 28.4 °F 93% 29.55 in 0.2 mi East 3.5 mph - N/A   Overcast
4:33 AM 30.2 °F - 28.4 °F 93% 29.55 in 0.2 mi Calm Calm - 0.01 in   Overcast
4:53 AM 30.2 °F 26.7 °F 28.4 °F 93% 29.54 in 0.2 mi ENE 3.5 mph - 0.01 in   Overcast
5:14 AM 30.2 °F 26.7 °F 28.4 °F 93% 29.54 in 0.2 mi NE 3.5 mph - N/A   Overcast
5:33 AM 30.2 °F - 28.4 °F 93% 29.53 in 0.2 mi Calm Calm - N/A   Overcast
5:53 AM 30.2 °F - 28.4 °F 93% 29.53 in 0.2 mi Calm Calm - N/A   Overcast
6:14 AM 30.2 °F - 28.4 °F 93% 29.53 in 0.5 mi Calm Calm - N/A   Overcast
6:33 AM 30.2 °F 26.7 °F 28.4 °F 93% 29.53 in 0.5 mi NNW 3.5 mph - N/A   Overcast
6:54 AM 30.2 °F - 28.4 °F 93% 29.54 in 0.5 mi Calm Calm - 0.01 in   Overcast
7:13 AM 30.2 °F 26.7 °F 28.4 °F 93% 29.54 in 1.5 mi NW 3.5 mph - N/A   Overcast
7:33 AM 30.2 °F 26.7 °F 28.4 °F 93% 29.55 in 4.0 mi NW 3.5 mph - N/A   Overcast
7:54 AM 30.2 °F 26.7 °F 28.4 °F 93% 29.55 in 7.0 mi NW 3.5 mph - N/A   Overcast
8:13 AM 32.0 °F 28.7 °F 28.4 °F 87% 29.55 in 4.0 mi NW 3.5 mph - N/A   Overcast
8:33 AM 32.0 °F 28.7 °F 28.4 °F 87% 29.55 in 5.0 mi NW 3.5 mph - N/A Snow Light Snow
8:54 AM 32.0 °F 28.7 °F 28.4 °F 87% 29.55 in 5.0 mi WNW 3.5 mph - N/A Snow Light Snow
9:13 AM 32.0 °F 27.5 °F 28.4 °F 87% 29.55 in 4.0 mi WNW 4.6 mph - N/A Snow Light Snow
9:34 AM 32.0 °F 27.5 °F 28.4 °F 87% 29.55 in 4.0 mi WNW 4.6 mph - N/A Snow Light Snow
9:53 AM 32.0 °F 27.5 °F 28.4 °F 87% 29.56 in 5.0 mi WNW 4.6 mph - N/A Snow Light Snow
10:13 AM 33.8 °F 27.7 °F 30.2 °F 87% 29.56 in 4.0 mi WNW 6.9 mph - N/A Snow Light Snow
10:34 AM 33.8 °F 29.6 °F 30.2 °F 87% 29.57 in 4.0 mi WNW 4.6 mph - N/A Snow Light Snow
10:53 AM 33.8 °F 27.0 °F 30.2 °F 87% 29.58 in 5.0 mi WNW 8.1 mph - 0.01 in Snow Light Snow
11:13 AM 33.8 °F 26.4 °F 30.2 °F 87% 29.58 in 4.0 mi WNW 9.2 mph 16.1 mph N/A Snow Light Snow
11:34 AM 33.8 °F 27.0 °F 28.4 °F 81% 29.59 in 5.0 mi WNW 8.1 mph - N/A Snow Light Snow
11:54 AM 33.8 °F 25.8 °F 28.4 °F 81% 29.59 in 7.0 mi WNW 10.4 mph 17.3 mph N/A   Overcast
12:13 PM 33.8 °F 27.0 °F 28.4 °F 81% 29.59 in 7.0 mi WNW 8.1 mph - N/A Snow Light Snow
12:33 PM 33.8 °F 27.0 °F 28.4 °F 81% 29.60 in 3.0 mi West 8.1 mph - N/A Snow Light Snow
12:53 PM 33.8 °F 27.7 °F 28.4 °F 81% 29.60 in 3.0 mi West 6.9 mph - N/A Snow Light Snow
1:13 PM 33.8 °F 26.4 °F 28.4 °F 81% 29.60 in 5.0 mi West 9.2 mph 17.3 mph N/A Snow Light Snow
1:33 PM 33.8 °F 26.4 °F 28.4 °F 81% 29.61 in 4.0 mi WNW 9.2 mph - N/A Snow Light Snow
1:54 PM 33.8 °F 24.8 °F 28.4 °F 81% 29.62 in 2.5 mi WNW 12.7 mph 20.7 mph N/A Snow Light Snow
2:13 PM 33.8 °F 27.0 °F 28.4 °F 81% 29.62 in 2.0 mi WNW 8.1 mph 18.4 mph N/A Snow Light Snow
2:33 PM 33.8 °F 25.3 °F 28.4 °F 81% 29.63 in 2.5 mi West 11.5 mph 23.0 mph N/A Snow Light Snow
2:54 PM 33.8 °F 25.3 °F 28.4 °F 81% 29.64 in 3.0 mi WNW 11.5 mph 20.7 mph N/A Snow Light Snow
3:14 PM 32.0 °F 22.5 °F 28.4 °F 87% 29.65 in 4.0 mi WNW 12.7 mph 23.0 mph N/A Snow Light Snow
3:34 PM 32.0 °F 23.6 °F 28.4 °F 87% 29.66 in 4.0 mi WNW 10.4 mph 20.7 mph N/A Snow Light Snow
3:53 PM 32.0 °F 23.6 °F 28.4 °F 87% 29.67 in 3.0 mi WNW 10.4 mph 19.6 mph N/A Snow Light Snow
4:14 PM 32.0 °F 23.6 °F 28.4 °F 87% 29.68 in 2.0 mi WNW 10.4 mph 19.6 mph N/A Snow Light Snow
4:33 PM 30.2 °F 20.8 °F 26.6 °F 86% 29.69 in 4.0 mi WNW 11.5 mph 26.5 mph N/A Snow Light Snow
4:53 PM 30.2 °F 21.9 °F 26.6 °F 86% 29.71 in 10.0 mi WNW 9.2 mph 23.0 mph N/A   Mostly Cloudy
5:14 PM 32.0 °F 23.0 °F 26.6 °F 80% 29.72 in 10.0 mi WNW 11.5 mph 20.7 mph N/A   Overcast
5:34 PM 32.0 °F 23.6 °F 26.6 °F 80% 29.73 in 10.0 mi WNW 10.4 mph 16.1 mph N/A   Overcast
5:53 PM 30.2 °F 21.9 °F 26.6 °F 86% 29.74 in 10.0 mi WNW 9.2 mph 20.7 mph N/A   Overcast
6:14 PM 30.2 °F 20.8 °F 26.6 °F 86% 29.75 in 7.0 mi WNW 11.5 mph 17.3 mph N/A Snow Light Snow
6:34 PM 30.2 °F 19.8 °F 26.6 °F 86% 29.76 in 7.0 mi WNW 13.8 mph 24.2 mph N/A Snow Light Snow
6:53 PM 30.2 °F 21.3 °F 26.6 °F 86% 29.77 in 3.0 mi WNW 10.4 mph 16.1 mph N/A Snow Light Snow
7:13 PM 30.2 °F 20.8 °F 26.6 °F 86% 29.77 in 4.0 mi WNW 11.5 mph 19.6 mph N/A Snow Light Snow
7:33 PM 30.2 °F 21.3 °F 26.6 °F 86% 29.78 in 4.0 mi WNW 10.4 mph 18.4 mph N/A Snow Light Snow
7:54 PM 30.2 °F 20.8 °F 26.6 °F 86% 29.79 in 7.0 mi WNW 11.5 mph 17.3 mph N/A Snow Light Snow
8:13 PM 30.2 °F 20.8 °F 26.6 °F 86% 29.80 in 4.0 mi WNW 11.5 mph 17.3 mph N/A Snow Light Snow
8:33 PM 30.2 °F 21.9 °F 26.6 °F 86% 29.81 in 2.5 mi NW 9.2 mph 19.6 mph N/A Snow Light Snow
8:53 PM 30.2 °F 20.8 °F 26.6 °F 86% 29.82 in 3.0 mi NW 11.5 mph 20.7 mph N/A Snow Light Snow
9:14 PM 30.2 °F 21.3 °F 26.6 °F 86% 29.83 in 5.0 mi NW 10.4 mph 17.3 mph N/A Snow Light Snow
9:33 PM 30.2 °F 19.3 °F 26.6 °F 86% 29.84 in 10.0 mi NW 15.0 mph 19.6 mph N/A   Overcast
9:53 PM 30.2 °F 20.8 °F 26.6 °F 86% 29.85 in 10.0 mi NW 11.5 mph 17.3 mph N/A   Overcast
10:13 PM 30.2 °F 20.8 °F 26.6 °F 86% 29.86 in 4.0 mi NW 11.5 mph 20.7 mph N/A Snow Light Snow
10:34 PM 30.2 °F 21.9 °F 26.6 °F 86% 29.87 in 5.0 mi NW 9.2 mph 17.3 mph N/A Snow Light Snow
10:54 PM 30.2 °F 21.9 °F 26.6 °F 86% 29.88 in 5.0 mi NW 9.2 mph 16.1 mph N/A Snow Light Snow
11:12 PM 30.2 °F 21.3 °F 26.6 °F 86% 29.89 in 5.0 mi NW 10.4 mph 17.3 mph N/A Snow Light Snow
11:33 PM 30.2 °F 20.8 °F 26.6 °F 86% 29.90 in 4.0 mi WNW 11.5 mph 18.4 mph N/A Snow Light Snow
11:53 PM 30.2 °F 21.3 °F 26.6 °F 86% 29.92 in 2.5 mi NW 10.4 mph 17.3 mph N/A Snow Light Snow